Location: B�rgermoos
(47.6500°N, 9.0667°E)
Time: 08:59:02
(UTC+00:00)

Cosmos 2142 Rocket - Pass Details

Date: 18 September 2020
Orbit: 952 x 1005 km, 82.9° (Epoch: 27 October)

Event Time Altitude Azimuth Distance (km) Brightness Sun altitude
Exits shadow 20:21:18 75° 135° (SE) 1,022 4.3 -27.7°
Maximum altitude 20:21:41 78° 96° (E) 1,009 4.3 -27.8°
Drops below altitude 10° 20:27:57 10° 11° (NNE) 2,731 7.1 -28.6°
Sets 20:30:27 0° 11° (N) 3,675 7.9 -28.9°
